www.pogodaiklimat.ru

Погода и климат >> Архив погоды >> Иран >> Kerman


ПОГОДА в Kerman

  • Прогноз погоды в Kerman
  • Монитор погоды в Kerman
  • Климат города

АРХИВ ПОГОДЫ в Kerman

Время (UTC), дата Ветер
(напр.,м/с)
 
Видим.   Явления Облачность Т
(С)
Тd
(С)
f
(%)
Тe
(С)
Тes
(С)
Комфортность P
(гПа)
Po
(гПа)
Тmin
(С)
Tmax
(С)
R
(мм)
R24
(мм)
S
(см)
12 11.12 С 4 10 км ясно +15.6 -22.9 5 +15 +16 1019.1 824.7
15 11.12 СВ 2 10 км ясно +8.3 -29.2 5 +8 +8 1023.5 825.5 +16.2
18 11.12 В 3 10 км 3/0
[Ac trans]
+3.2 -27.7 8 +1 +1 1019.2 825.0
21 11.12 ЮВ 2 10 км ясно -1.2 -25.6 14 -4 -4 1016.4 824.3
00 12.12 СЗ 3 10 км ясно -1.1 -26.7 12 -5 -5 1017.7 825.2
03 12.12 ЮВ 3 10 км ясно -5.1 -26.2 17 -9 -9 1025.7 828.3 -5.1
06 12.12 Ю 2 10 км ясно +6.5 -25.1 8 +6 +10 1025.4 830.1
09 12.12 З 3 10 км ясно +8.4 -23.5 8 +7 +13 1024.1 828.3
12 12.12 С 5 10 км ясно +9.1 -23.3 8 +7 +7 1022.8 827.5
15 12.12 С 2 10 км ясно +2.6 -18.1 20 +1 +1 1028.3 828.7 +9.5
18 12.12 СЗ 2 10 км ясно -1.1 -18.6 25 -4 -4 1026.6 829.7
21 12.12 Ю 2 10 км ясно -5.7 -20.8 29 -9 -9 1026.3 829.6
00 13.12 В 2 10 км ясно -7.4 -20.9 33 -11 -11 1027.8 829.5
03 13.12 ЮВ 2 15 км ясно -9.3 -20.1 41 -13 -13 1031.5 829.8 -9.4
06 13.12 Ю 2 15 км ясно +5.5 -19.8 14 +4 +9 1027.5 830.2
09 13.12 СВ 3 15 км ясно +8.2 -20.6 11 +7 +13 1025.3 827.8
12 13.12 ЮЗ 2 15 км 1/0
[Ci fib]
+10.6 -21.5 9 +10 +11 1023.3 826.4
15 13.12 СЗ 2 10 км 1/0
[Ci fib]
+3.6 -20.3 15 +2 +2 1027.2 826.7 +11.6
18 13.12 штиль 0 10 км ясно -1.4 -21.2 20 -1 -1 1024.1 827.3
21 13.12 В 2 10 км ясно -4.2 -21.2 25 -7 -7 1022.4 826.8
00 14.12 штиль 0 10 км ясно -6.0 -22.0 27 -6 -6 1023.3 826.8
03 14.12 штиль 0 10 км ясно -8.2 -20.6 36 -8 -8 1027.9 827.6 -8.3
06 14.12 СВ 2 10 км ясно +6.7 -20.1 13 +6 +10 1025.1 828.5
09 14.12 СЗ 2 10 км ясно +12.0 -15.8 13 +12 +19 1021.1 826.0
12 14.12 СЗ 4 15 км ясно +13.1 -18.1 10 +12 +13 1019.5 824.6
15 14.12 С 2 10 км ясно +6.1 -17.2 17 +5 +5 1024.1 825.3 +13.5
18 14.12 ЮВ 3 10 км ясно +1.6 -18.4 21 -1 -1 1020.8 826.0
21 14.12 В 2 10 км ясно -2.0 -17.3 30 -5 -5 1019.0 825.3
00 15.12 В 2 10 км ясно -4.7 -18.0 34 -8 -8 1019.6 825.0
03 15.12 В 2 10 км 4/1 1200 м
[Sc Ac trans]
-5.8 -18.4 36 -9 -9 1023.3 825.5 -6.2
06 15.12 штиль 0 10 км 8/4 1200 м
[Cu hum Cs]
+9.2 -18.4 12 +10 +13 1021.0 826.8
09 15.12 З 5 10 км 8/1 1200 м
[Cu hum Ac und Cs]
+13.2 -21.3 7 +12 +14 1018.9 825.3
12 15.12 З 5 10 км 9/3 1200 м
[Cu hum Ac und Cs]
+13.6 -12.1 16 +12 +13 1019.5 825.1
15 15.12 ЮЗ 4 10 км 6/1 1200 м
[Sc diur, vesp Ac trans]
+9.1 -8.1 29 +7 +7 1023.2 826.6 +14.6
18 15.12 СЗ 2 10 км 4/1 1200 м
[Sc diur, vesp Ac trans]
+6.8 -7.7 35 +5 +5 1019.3 827.2
21 15.12 В 3 10 км 6/3 1200 м
[Sc diur, vesp Ac trans]
+3.7 -9.1 39 +1 +1 1018.8 827.2
00 16.12 В 3 10 км 6/3 1200 м
[Sc diur, vesp Ac trans]
+3.8 -8.5 40 +1 +1 1019.0 827.4
03 16.12 Ю 3 10 км 8/3 1200 м
[Sc diur, vesp Ac As]
+1.8 -9.2 44 -2 -2 1023.5 829.1 +1.4
06 16.12 Ю 5 10 км 9/5 1050 м
[Cb calv Ac As]
+7.4 -0.4 58 +4 +5 1023.7 830.5
09 16.12 Ю 3 10 км 9/5 1050 м
[Cb calv Ac As]
+11.5 -2.1 39 +10 +12 1021.3 828.8
12 16.12 ЮВ 2 10 км 6/4 1200 м
[Cb calv Ac As]
+11.8 -3.1 35 +11 +12 1019.9 827.6
15 16.12 СВ 2 10 км 6/4 1200 м
[Cb calv Ac As]
+9.6 -3.0 41 +9 +9 1023.7 829.5 +13.1
18 16.12 Ю 2 10 км 4/1 1350 м
[Sc diur, vesp Ci sp]
+4.3 +1.1 80 +2 +2 1024.0 830.0
21 16.12 штиль 0 10 км 5/1 1350 м
[Sc diur, vesp Cs]
+3.8 -0.3 75 +3 +3 1021.8 829.4
00 17.12 штиль 0 10 км 5/3 1200 м
[Sc diur, vesp Cs]
+2.3 -1.4 77 +1 +1 1022.8 829.6
03 17.12 ЮЗ 3 10 км 10/5 1050 м
[Cu Sc As op]
+2.7 -1.6 73 -1 -1 1024.9 830.4 +2.1
06 17.12 В 2 10 км 8/1 1000 м
[Cu hum Ac As]
+9.2 -0.1 52 +8 +10 1024.6 831.0
09 17.12 З 3 10 км 3/3 1050 м
[Cu hum]
+13.0 -2.8 33 +12 +16 1020.7 828.8
12 17.12 С 3 10 км 3/3 1050 м
[Sc diur, vesp]
+14.3 -4.8 26 +14 +14 1019.1 827.3
15 17.12 штиль 0 10 км 8/3 1200 м
[Sc diur, vesp Ac und]
+10.8 -5.6 31 +11 +11 1022.3 828.9 +15.0
18 17.12 штиль 0 10 км 5/1 1200 м
[Sc diur, vesp Ac und]
+8.7 -3.0 44 +9 +9 1021.3 829.5
21 17.12 штиль 0 10 км 3/0
[Ac und]
+5.2 -2.1 59 +5 +5 1021.1 829.5
00 18.12 штиль 0 10 км ясно +1.0 -4.4 67 0 0 1022.6 829.7
03 18.12 штиль 0 10 км 4/1 1200 м
[Cu hum Ci sp]
-0.9 -6.8 64 -2 -2 1025.6 830.5 -0.9
06 18.12 В 2 10 км 5/1 1200 м
[Sc diur, vesp Ci sp]
+9.8 -3.4 39 +9 +13 1023.2 831.3
09 18.12 СЗ 2 10 км 4/1 1200 м
[Cu med, cong Ci sp]
+14.0 -2.4 32 +14 +20 1020.4 829.3

 

Местоположение метеостанции Kerman (Иран): широта 30.25 долгота 56.97 высота над уровнем моря 1754 м.

В архиве по умолчанию представлена погода в Kerman за последнюю неделю. Архивные данные за месяц целиком и за предыдущие месяцы, начиная с января 2011 года, Вы можете получить, выбрав интересующий диапазон дат из раскрывающегося списка и нажав кнопку "Ввод!".

Внимание! Время в таблицах - всемирное. Для получения местного времени необходимо прибавить поправку, которая в Kerman равна 3.5 ч.

Смотрите также архив погоды в соседних городах и на ближайших метеорологических станциях:

Погода в Baft (Иран) (120 км)
Погода в Sirjan (Иран) (149 км)
Погода в Bam (Иран) (188 км)
Погода в Kahnuj (Иран) (263 км)
Погода в Yazd (Иран) (315 км)
Погода в Nehbandan (Иран) (325 км)
Погода в Bandarabbass (Иран) (342 км)
Погода в Fasa (Иран) (349 км)
Погода в Birjand (Иран) (360 км)
Погода в Tabas (Иран) (373 км)

Пояснения к столбцам:

Ветер - указаны скорость ветра в м/с - средняя за 10 мин, порывы в срок и между сроками (в фигурных скобках) и направление, откуда дует ветер: С - северный, СВ - северо-восточный, В - восточный, ЮВ - юго-восточный, Ю - южный, ЮЗ - юго-западный, З - западный, СЗ - северо-западный.
Видимость - горизонтальная дальность видимости в метрах или километрах. При видимости от 1 до 10 км при отсутствии осадков обычно наблюдается дымка, при ухудшении видимости до 1 км и менее - туман. В сухую погоду видимость может ухудшаться дымом, пылью или мглою.
Явления - указаны атмосферные явления, наблюдавшиеся в срок или в последний час перед сроком; фигурными скобками обозначены явления, наблюдавшиеся между сроками (за 1-3 часа до срока); квадратными скобками обозначены град или гололедные отложения с указанием их диаметра в мм.
Облачность - указаны через наклонную черту общая и нижняя облачность в баллах и высота нижней границы облаков в метрах; квадратными скобками обозначены формы облаков: Ci - перистые, Cs - перисто-слоистые, Cc - перисто-кучевые, Ac - высококучевые, As - высокослоистые, Sc - слоисто-кучевые, Ns - слоисто-дождевые, Cu - кучевые, Cb - кучево-дождевые. Подробнее классификацию облаков см. в Атласе облаков (PDF).
T - Температура воздуха - температура, измеренная на высоте 2 м над землей.
Td - Температура точки росы - температура, при понижении до которой содержащийся в воздухе водяной пар достигнет насыщения.
f - Относительная влажность воздуха - влажноcть воздуха, измеренная на высоте 2 м над землей.
Te - Эффективная температура - температура, которую ощущает одетый по сезону человек в тени. Характеристика душности погоды. При расчете учитывается влияние влажности воздуха и скорости ветра на теплоощущения человека.
Tes - Эффективная температура на солнце - температура, которую ощущает человек, с поправкой на солнечный нагрев. Характеристика знойности погоды. Зависит от высоты солнца над горизонтом, облачности и скорости ветра. Ночью, в пасмурную погоду, а также при ветре 12 м/с и более поправка равна нулю.
P - Атмосферное давление - приведенное к уровню моря атмосферное давление.
Po - Атмосферное давление - измеренное на уровне метеостанции атмосферное давление.
Tmin - Минимальная температура - минимум температуры воздуха на высоте 2 м над землей.
Tmax - Максимальная температура - максимум температуры воздуха на высоте 2 м над землей.
R - Количество осадков - Количество выпавших осадков за период времени, мм. При наведении курсора мыши на число - период времени, за который выпало указанное количество осадков.
R24 - Количество осадков - Количество выпавших осадков за 24 часа, мм.
S - Снежный покров - Высота снежного покрова, см. При наведении курсора мыши на число - состояние снежного покрова и степень покрытия местности в баллах.